ARIANE 40 R/B

Satellite information

Favourite Embed

Satellite Type and Status

ROCKET BODYIN ORBIT

Key statistics

Satellite ARIANE 40 R/B at a glance.

Uptime

11661

Days in orbit

Revolutions

≈ 14.3

Per day

Orbit

SSO

Sun Synchronous Orbit

Inclination

98.5

Latest

Satellite identification and parameters

Extended collection of information and parameters for ARIANE 40 R/B.

Object identification

Identified? True

Debris? False

Object name: ARIANE 40 R/B

International designator: 1993-061H

Object number (NORAD): 22830

Object ID (CCSDS): 22830

Country: FRANCE (FR)

Current information (Y/N): Y

RCS size: LARGE

Orbital parameters

Period: 100.51 minutes

Inclination: 98.5209 deg

SMA: 7160.862 km

Apoapsis: 791.108 km

Periapsis: 774.345 km

RAAN: 309.3025 deg

Eccentricy: 0.0011704

Argument of periapsis: 128.8199 deg

Mean anomaly: 231.4032 deg

Mean motion: 14.32698642 rev/day

Mean motion (dot): 0.00000285 rev/day2

B* drag term: 0.00012053927 1/REarth

Two-line elements (TLE)

Creation date: Aug. 30, 2025, 3:38 a.m.

Reference frame: TEME

Reference center: EARTH

Epoch: Aug. 29, 2025, 10:25 p.m. UTC

TLE line 0: 0 ARIANE 40 R/B

TLE line 1: 1 22830U 93061H 25241.93412014 .00000285 00000-0 12054-3 0 9992

TLE line 2: 2 22830 98.5209 309.3025 0011704 128.8199 231.4032 14.32698642666641

Live tracking on map

Real-time ground track for satellite ARIANE 40 R/B.

In-orbit conjunctions

A list of the most updated potential collisions computed for object ARIANE 40 R/B.

Target Orbit TCA Probability of collision Miss distance Type
FENGYUN 1C DEB SSO 2025-03-27 05:47:16 0.0001009475 829.0 (m) DEBRIS
FENGYUN 1C DEB SSO 2025-02-07 16:13:50 0.0001158974 420.0 (m) DEBRIS
THOR ABLESTAR DEB LEO 2024-09-26 21:59:34 0.001085557 594.0 (m) DEBRIS
FENGYUN 1C DEB SSO 2024-09-03 18:08:31 0.000151602 600.0 (m) DEBRIS

Associated space launch

The satellites SPOT 1, 2 and 3 (Satellite Probatoire de l'Observation de la Terre) were the first generation of SPOT earth observation satellites operated by Spot Image.

ARIANE 40 R/B was lifted into orbit during the mission ‘Ariane 40 | SPOT 3’, on board a Ariane 40 space rocket.

The launch took place on Sept. 26, 1993, 1:45 a.m. from Ariane Launch Area 2.

For more information about the launch, click the button.

Launch to space Ariane 40 | SPOT 3
Ariane 40 | SPOT 3

Agency: N/A

Status: Launch Successful

Launch date: Sept. 26, 1993, 1:45 a.m. UTC

Rocket: Ariane 40

Launch pad: Ariane Launch Area 2

Location: Guiana Space Centre, French Guiana

...

Latest news about this satellite

There are no fresh news available about this satellite. Check back as we update our databases every day.


Newsletter sign-up

Weekly statistics, charts and insights to help you stay on top of the space industry.